#timestamp,LO_Frequency,Hit 
1499252415.1,286046937.0,N
1499252435.8,286046934.4,N
1499252455.7,286046932.6,Y
1499252475.5,286046997.7,N
1499252495.3,286046997.6,N
1499252515.2,286046995.0,N
1499252535.0,286046995.8,N
1499252535.9,286046995.8,N
1499252555.7,286046996.4,N
1499252575.6,286046996.4,N
1499252595.4,286046996.2,N
1499252615.2,286046994.0,N
1499252635.1,286046994.5,N
1499252636.0,286046994.5,N
1499252655.8,286046992.1,N
1499252675.6,286046994.3,N
1499252695.5,286046993.0,N
1499252715.3,286046990.3,N
1499252735.1,286046990.7,N
1499252755.9,286046992.3,N
1499252775.7,286046992.8,N
1499252795.5,286046991.6,N
1499252815.3,286046989.1,N
1499252835.2,286046989.1,N
1499252855.0,286046987.2,N
1499252855.9,286046987.2,N
1499252875.7,286046989.4,N
1499252895.6,286046987.4,N
1499252915.4,286046988.2,N
1499252935.2,286046985.5,N
1499252955.1,286046988.2,N
1499252956.0,286046988.2,N
1499252975.8,286046985.8,N
1499252995.6,286046983.8,N
1499253015.5,286046983.8,N
1499253035.3,286046984.5,N
1499253055.1,286046982.1,N
1499253075.9,286046982.2,N
1499253095.7,286046982.9,N
1499253115.5,286046983.4,N
1499253135.3,286046980.8,N
1499253155.2,286046980.8,N
1499253175.0,286046981.8,N
1499253175.9,286046981.8,N
1499253195.7,286046981.9,N
1499253215.6,286046979.3,N
1499253235.4,286046979.9,N
1499253255.2,286046980.3,N
1499253275.1,286046977.3,N
1499253276.0,286046977.3,N
1499253295.8,286046977.7,N
1499253315.6,286046978.2,N
1499253335.5,286046978.2,N
1499253355.3,286046976.0,N
1499253375.1,286046976.9,N
1499253395.9,286046974.3,N
1499253415.7,286046975.1,N
1499253435.5,286046975.2,N
1499253455.4,286046974.8,N
1499253475.2,286046975.1,N
1499253495.0,286046973.0,N
1499253495.9,286046973.0,N
1499253515.8,286046973.2,N
1499253535.6,286046973.4,N
1499253555.4,286046973.4,N
1499253575.2,286046974.0,N
1499253595.1,286046971.4,N
1499253596.0,286046971.4,N
1499253615.8,286046971.2,N
1499253635.6,286046971.9,N
1499253655.5,286046969.8,N
1499253675.3,286046969.4,N
1499253695.1,286046970.3,N
1499253715.9,286046970.2,N
1499253735.7,286046968.1,N
1499253755.5,286046968.1,N
1499253775.4,286046967.7,N
1499253795.2,286046968.0,N
1499253815.0,286046966.1,N
1499253815.9,286046966.1,N
1499253835.8,286046966.4,N
1499253855.6,286046966.4,N
1499253875.4,286046967.0,N
1499253895.3,286046964.8,N
1499253915.1,286046965.1,N
1499253916.0,286046965.1,N
1499253935.8,286046965.6,N
1499253955.6,286046966.0,N
1499253975.5,286046963.4,N
1499253995.3,286046963.0,N
1499254015.1,286046964.2,N
1499254035.9,286046961.5,N
1499254055.7,286046962.5,N
1499254075.5,286046962.5,N
1499254095.4,286046961.9,N
1499254115.2,286046962.3,N
1499254135.0,286046959.7,N
1499254135.9,286046959.7,N
1499254155.8,286046959.7,N
1499254175.6,286046960.9,N
1499254195.4,286046958.4,N
1499254215.3,286046960.8,N
1499254235.1,286046958.9,N
1499254236.0,286046958.9,N
1499254255.8,286046958.3,N
1499254275.7,286046959.4,N
1499254295.5,286046956.7,N
1499254315.3,286046957.4,N
1499254335.1,286046957.7,N
1499254355.9,286046957.4,N
1499254375.7,286046955.4,N
1499254395.5,286046955.6,N
1499254415.4,286046956.3,N
1499254435.2,286046953.9,N
1499254455.0,286046953.3,N
1499254455.9,286046953.3,N
1499254475.8,286046954.0,N
1499254495.6,286046954.8,N
1499254515.4,286046954.8,N
1499254535.3,286046954.4,N
1499254555.1,286046952.9,N
1499254556.0,286046952.9,N
1499254575.8,286046953.0,N
1499254595.7,286046952.5,N
1499254615.5,286046951.9,N
1499254635.3,286046952.9,N
1499254655.1,286046952.8,N
1499254675.9,286046952.6,N
1499254695.7,286046953.2,N
1499254715.5,286046950.1,N
1499254735.4,286046952.8,N
1499254755.2,286046950.2,N
1499254775.0,286046953.2,N
1499254775.9,286046953.2,N
1499254795.8,286046953.2,N
1499254815.6,286046953.1,N
1499254835.4,286046950.3,N
1499254855.3,286046949.3,N
1499254875.1,286046949.5,N
1499254876.0,286046949.5,N
1499254895.8,286046947.4,N
1499254915.7,286046947.3,N
1499254935.5,286046947.2,N
1499254955.3,286046947.0,N
1499254975.1,286046947.0,N
1499254995.9,286046947.8,N
1499255015.7,286046948.1,N
1499255035.5,286046948.0,N
1499255055.4,286046945.9,N
1499255075.2,286046948.4,N
1499255095.0,286046946.4,N
1499255095.9,286046946.4,N
1499255115.8,286046946.7,N
1499255135.6,286046943.8,N
1499255155.4,286046946.7,N
1499255175.3,286046943.7,N
1499255195.1,286046944.8,N
1499255196.0,286046944.8,N
1499255215.8,286046944.7,N
1499255235.7,286046945.2,N
1499255255.5,286046944.4,N
1499255275.3,286046942.1,N
1499255295.2,286046943.5,N
1499255315.9,286046940.9,N
1499255335.7,286046941.6,N
1499255355.5,286046939.0,N
1499255375.6,286046941.5,N
1499255395.4,286046939.3,N
1499255415.2,286046939.4,N
1499255435.1,286046941.6,N
1499255436.0,286046941.6,N
1499255455.8,286046939.2,N
1499255475.6,286046940.1,N
1499255495.5,286046938.2,N
1499255515.3,286046940.1,N
1499255535.1,286046937.7,N
1499255555.9,286046939.4,N
1499255575.7,286046940.0,N
1499255595.5,286046940.3,N
1499255615.3,286046938.0,N
1499255635.2,286046937.6,N
1499255655.0,286046938.3,N
1499255655.9,286046938.3,N
1499255675.7,286046938.4,N
1499255695.6,286046936.1,N
1499255715.4,286046936.1,N
1499255735.2,286046938.7,N
1499255755.1,286046936.4,N
1499255756.0,286046936.4,N
1499255775.8,286046936.8,N
1499255795.6,286046934.1,N
1499255815.5,286046934.4,N
1499255835.3,286046934.9,N
1499255855.1,286046934.4,N
1499255875.9,286046934.4,N
1499255895.7,286046934.7,N
1499255915.5,286046935.1,N
1499255935.4,286046932.9,N
1499255955.2,286046933.2,N
1499255975.0,286046932.8,N
1499255975.9,286046932.8,N
1499255995.8,286046933.4,N
